Location: Arroyo de Valdeoliva
(40.1604°N, 4.9878°W)
Time: 08:38:22
(UTC+00:00)

Cosmos 1825 Rocket - Pass Details

Date: 19 March 2026
Orbit: 596 x 624 km, 82.5° (Epoch: 18 April)

Event Time Altitude Azimuth Distance (km) Brightness Sun altitude
Rises 19:25:48 0° 224° (SW) 2,890 7.5 -11.3°
Reaches altitude 10° 19:28:35 10° 242° (WSW) 1,991 7.0 -11.8°
Maximum altitude 19:31:44 19° 288° (WNW) 1,495 6.7 -12.4°
Drops below altitude 10° 19:34:54 10° 333° (NNW) 2,002 6.7 -13.0°
Sets 19:37:43 0° 352° (N) 2,912 7.3 -13.5°
